www.pogodaiklimat.ru

Погода и климат >> Архив погоды >> Молдова >> Дубоссары


ПОГОДА в Дубоссарах

  • Прогноз погоды в Дубоссарах
  • Монитор погоды в Дубоссарах

АРХИВ ПОГОДЫ в Дубоссарах

Время (UTC), дата Ветер
(напр.,м/с)
 
Видим.   Явления Облачность Т
(С)
Тd
(С)
f
(%)
Тe
(С)
Тes
(С)
Комфортность P
(гПа)
Po
(гПа)
Тmin
(С)
Tmax
(С)
R
(мм)
R24
(мм)
S
(см)
00 11.06 С 2 10 км ясно +20.7 +16.4 76 +25 +25 комфорт 1015.6 1010.8
03 11.06 СЗ 2 10 км 9/0
[Ac trans Ci fib]
+19.7 +15.3 76 +22 +23 комфорт 1015.5 1010.6
06 11.06 СЗ 2 10 км 9/0
[Ac trans Ci fib]
+23.5 +17.0 67 +27 +32 душно 1015.4 1010.6 +19.6
09 11.06 СВ 1 10 км 6/0
[Ac trans Cc]
+29.0 +18.1 52 +34 +49 очень
душно
1015.5 1010.7
12 11.06 В 2 10 км 10/4 600 м
[Cb calv Ac trans Ci sp]
+31.2 +16.2 40 +34 +39 душно 1014.4 1009.7
15 11.06 СВ 1 10 км 6/3 600 м
[Cb calv Ac trans Ci sp]
+29.9 +19.4 53 +36 +39 очень
душно
1014.0 1009.3
18 11.06 С 1 10 км 5/3 600 м
[Sc Ac trans Ci sp]
+26.1 +19.6 67 +32 +32 очень
душно
1014.1 1009.3 +32.9
21 11.06 СВ 2 10 км 8/0
[Ac trans Ci sp]
+22.4 +17.2 72 +27 +27 душно 1014.7 1009.9
00 12.06 СЗ 2 10 км ясно +20.7 +16.6 77 +25 +25 комфорт 1014.3 1009.5
03 12.06 С 1 10 км 8/0
[Ac trans Ci sp]
+19.7 +15.7 78 +23 +23 комфорт 1014.4 1009.5
06 12.06 С 2 10 км 8/0
[Ac trans Ci sp]
+23.2 +17.0 68 +28 +34 душно 1014.2 1009.4 +19.6
09 12.06 С 2 10 км 6/0
[Ci sp]
+29.1 +17.7 50 +33 +49 очень
душно
1014.2 1009.4
12 12.06 В 3 10 км 8/3 600 м
[Cu hum Ci sp]
+32.3 +13.7 32 +33 +41 жарко 1013.5 1008.8
15 12.06 С 3 10 км 8/0
[Ci sp]
+31.9 +14.0 34 +33 +37 жарко 1012.7 1008.0
18 12.06 С 3 10 км 6/0
[Ac trans Ci sp]
+27.7 +16.6 51 +31 +31 душно 1012.7 1007.9 +33.6
21 12.06 С 3 10 км 8/0
[Ac trans Ci sp]
+24.3 +16.5 62 +28 +28 душно 1013.8 1009.0
00 13.06 С 2 10 км 8/0
[Ac trans Ci sp]
+22.0 +15.9 68 +26 +26 душно 1013.8 1009.0
03 13.06 СЗ 2 10 км 4/4 600 м
[Sc]
+21.2 +15.9 72 +25 +25 комфорт 1013.8 1009.0
06 13.06 С 2 10 км 1/1 600 м
[Sc]
+24.0 +16.9 65 +28 +35 душно 1014.8 1010.0 +21.1
09 13.06 СЗ 2 10 км ясно +27.8 +17.7 54 +32 +50 душно 1015.7 1010.9
12 13.06 В 1 10 км 8/4 1000 м
[Cu med, cong Ac trans Ci sp]
+32.2 +13.7 33 +34 +41 душно 1015.8 1011.1
15 13.06 В 3 10 км 6/3 600 м
[Cb calv Ac trans Ci sp]
+29.1 +13.1 37 +30 +33 жарко 1015.9 1011.1
18 13.06 С 1 10 км 9/3 600 м
[Cb calv Ac trans Ci sp]
+26.2 +14.6 49 +29 +29 жарко 1016.1 1011.3 +32.9
21 13.06 З 1 10 км гроза без осадков {ливн. осадки} 10/6 600 м
[Cb cap Ac As]
+22.9 +15.4 63 +27 +27 душно 1016.5 1011.7
00 14.06 штиль 0 4000 м в посл. час гроза {ливн. осадки} 9/3 600 м
[Cb calv Ac trans]
+19.7 +17.9 89 +22 +22 комфорт 1017.6 1012.7
03 14.06 штиль 0 4000 м дымка 8/3 600 м
[Sc Ac trans Ci sp]
+19.8 +17.5 87 +22 +22 комфорт 1017.3 1012.4
06 14.06 С 1 10 км 4/0
[Ac trans Ci sp]
+23.4 +18.0 72 +29 +37 душно 1018.0 1013.2 +19.3 3
09 14.06 С 3 10 км 4/0
[Ci sp]
+29.4 +17.4 48 +33 +47 душно 1017.9 1013.1
12 14.06 СВ 3 10 км 3/1 1000 м
[Cu hum Ci fib]
+32.5 +18.1 42 +37 +48 очень
душно
1017.6 1012.9
15 14.06 ЮВ 2 10 км гроза без осадков 8/6 300 м
[Cb cap Ac trans Ci fib]
+25.5 +14.0 49 +28 +29 жарко 1017.2 1012.4
18 14.06 СЗ 1 10 км {гроза} 8/0
[Ci sp]
+25.3 +18.7 67 +30 +30 душно 1016.7 1011.9 +33.0
21 14.06 штиль 0 10 км 8/0
[Ci sp]
+23.0 +19.6 81 +30 +30 очень
душно
1017.6 1012.8
00 15.06 СЗ 1 10 км 4/0
[Ci fib]
+22.3 +18.8 81 +28 +28 душно 1017.1 1012.3
03 15.06 СЗ 1 4000 м дымка 3/0
[Ac trans Ci fib]
+20.7 +18.7 88 +26 +26 душно 1017.0 1012.2
06 15.06 З 2 10 км 3/0
[Ac trans Ci fib]
+24.8 +19.7 73 +30 +37 душно 1016.9 1012.1 +20.6
09 15.06 СЗ 1 10 км 6/5 600 м
[Cu med, cong Ci fib]
+29.9 +18.3 50 +35 +45 очень
душно
1016.0 1011.2
12 15.06 СЗ 2 10 км гроза без осадков 8/6 300 м
[Cb cap Ac trans Ci sp]
+31.1 +20.2 52 +38 +42 очень
душно
1014.4 1009.7
15 15.06 СВ 2 10 км {гроза} 10/5 600 м
[Sc Ac trans Ci sp]
+29.6 +20.0 56 +36 +37 очень
душно
1014.0 1009.2
18 15.06 СЗ 1 10 км 8/0
[Ci sp]
+25.5 +21.2 77 +32 +32 очень
душно
1013.3 1008.5 +32.6
21 15.06 СЗ 1 10 км 3/0
[Cc]
+22.7 +22.5 99 +31 +31 очень
душно
1013.9 1009.1
00 16.06 штиль 0 4000 м дымка ясно +20.7 +22.4 100 +25 +25 комфорт 1013.4 1008.6
03 16.06 СЗ 1 4000 м дымка ясно +20.9 +22.2 100 +27 +28 душно 1013.3 1008.5
06 16.06 10 км 1/0
[Ci fib]
+24.8 +20.0 75 1013.5 1008.7 +20.0
09 16.06 СЗ 1 10 км 3/3 1000 м
[Cu hum]
+30.1 +20.3 56 +37 +51 опасность
солнечного
удара
1013.6 1008.9
12 16.06 штиль 0 10 км 8/6 600 м
[Cu hum Ci sp]
+31.9 +14.9 36 +34 +42 душно 1013.0 1008.3
15 16.06 В 1 10 км 5/3 600 м
[Cb calv Ac trans Ci sp]
+33.1 +13.7 31 +34 +38 очень
жарко
1012.2 1007.5
18 16.06 СВ 1 10 км 9/0
[Ci sp]
+28.6 +17.0 49 +32 +32 душно 1012.2 1007.4 +33.9
21 16.06 С 1 10 км 6/0
[Ac trans Ci fib]
+24.6 +18.3 68 +29 +29 душно 1012.9 1008.1
00 17.06 С 1 10 км 8/0
[Ci fib]
+22.5 +18.5 78 +28 +28 душно 1013.5 1008.7
03 17.06 штиль 0 4000 м дымка ясно +20.5 +18.6 89 +24 +24 комфорт 1014.6 1009.8
06 17.06 СЗ 1 10 км ясно +25.0 +18.9 69 +30 +39 душно 1015.1 1010.3 +20.3
09 17.06 СЗ 2 10 км ясно +29.6 +16.7 46 +33 +51 опасность
солнечного
удара
1015.3 1010.5
12 17.06 В 2 10 км 3/3 600 м
[Cu med, cong]
+32.4 +15.6 36 +35 +46 душно 1014.6 1009.9
15 17.06 В 2 10 км 3/1 600 м
[Cu med, cong Ci sp]
+31.8 +16.6 40 +35 +39 очень
душно
1013.9 1009.2
18 17.06 С 5 10 км 9/4 600 м
[Cb calv Ci sp]
+26.0 +15.9 54 +29 +29 душно 1015.0 1010.2 +34.2
21 17.06 СЗ 4 10 км зарница 9/1 600 м
[Cb calv Ac trans Ci sp]
+21.8 +17.7 78 +26 +26 душно 1015.9 1011.1

 

Местоположение метеостанции Дубоссары (Молдова): широта 47.28 долгота 29.00 высота над уровнем моря 40 м.

В архиве по умолчанию представлена погода в Дубоссарах за последнюю неделю. Архивные данные за месяц целиком и за предыдущие месяцы, начиная с января 2011 года, Вы можете получить, выбрав интересующий диапазон дат из раскрывающегося списка и нажав кнопку "Ввод!".


*Определитесь, кто Вы:
робот инопланетянин человек

Внимание! Время в таблицах - всемирное. Для получения местного времени необходимо прибавить поправку, которая равна 2 ч.

Смотрите также архив погоды в соседних городах и на ближайших метеорологических станциях:

Погода в Балцате (Молдова) (26 км)
Погода в Кишиневе (Молдова) (29 км)
Погода в Бравичах (Молдова) (44 км)
Погода в Кодрах (Молдова) (51 км)
Погода в Рыбнице (Молдова) (55 км)
Погода в Тирасполе (Молдова) (62 км)
Погода в Затишье (Одесская область, Украина) (67 км)
Погода в Корнестах (Молдова) (70 км)
Погода в Каменке (Молдова) (86 км)
Погода в Штефан Водэ (Молдова) (92 км)

Пояснения к столбцам:

Ветер - указаны скорость ветра в м/с - средняя за 10 мин, порывы в срок и между сроками (в фигурных скобках) и направление, откуда дует ветер: С - северный, СВ - северо-восточный, В - восточный, ЮВ - юго-восточный, Ю - южный, ЮЗ - юго-западный, З - западный, СЗ - северо-западный.
Видимость - горизонтальная дальность видимости в метрах или километрах. При видимости от 1 до 10 км при отсутствии осадков обычно наблюдается дымка, при ухудшении видимости до 1 км и менее - туман. В сухую погоду видимость может ухудшаться дымом, пылью или мглою.
Явления - указаны атмосферные явления, наблюдавшиеся в срок или в последний час перед сроком; фигурными скобками обозначены явления, наблюдавшиеся между сроками (за 1-3 часа до срока); квадратными скобками обозначены град или гололедные отложения с указанием их диаметра в мм.
Облачность - указаны через наклонную черту общая и нижняя облачность в баллах и высота нижней границы облаков в метрах; квадратными скобками обозначены формы облаков: Ci - перистые, Cs - перисто-слоистые, Cc - перисто-кучевые, Ac - высококучевые, As - высокослоистые, Sc - слоисто-кучевые, Ns - слоисто-дождевые, Cu - кучевые, Cb - кучево-дождевые. Подробнее классификацию облаков см. в Атласе облаков (PDF).
T - Температура воздуха - температура, измеренная на высоте 2 м над землей.
Td - Температура точки росы - температура, при понижении до которой содержащийся в воздухе водяной пар достигнет насыщения.
f - Относительная влажность воздуха - влажноcть воздуха, измеренная на высоте 2 м над землей.
Te - Эффективная температура - температура, которую ощущает одетый по сезону человек в тени. Характеристика душности погоды. При расчете учитывается влияние влажности воздуха и скорости ветра на теплоощущения человека.
Tes - Эффективная температура на солнце - температура, которую ощущает человек, с поправкой на солнечный нагрев. Характеристика знойности погоды. Зависит от высоты солнца над горизонтом, облачности и скорости ветра. Ночью, в пасмурную погоду, а также при ветре 12 м/с и более поправка равна нулю.
P - Атмосферное давление - приведенное к уровню моря атмосферное давление.
Po - Атмосферное давление - измеренное на уровне метеостанции атмосферное давление.
Tmin - Минимальная температура - минимум температуры воздуха на высоте 2 м над землей.
Tmax - Максимальная температура - максимум температуры воздуха на высоте 2 м над землей.
R - Количество осадков - Количество выпавших осадков за период времени, мм. При наведении курсора мыши на число - период времени, за который выпало указанное количество осадков.
R24 - Количество осадков - Количество выпавших осадков за 24 часа, мм.
S - Снежный покров - Высота снежного покрова, см. При наведении курсора мыши на число - состояние снежного покрова и степень покрытия местности в баллах.